Погода в Читтагонге

Бангладеш     22°06′06″N   91°53′58″E
темп.,
°C
ветер,
м/с
пор.,
м/с
влажн.,
%
обл.,
%
осадки,
мм/ч
давл.,
гПа
погр.,
м
21 января, пт
пт2100:00+14всв229537 0.0 101220
03:00+13св22945 0.0 101118
06:00+12всв22930 0.0 101220
09:00+20всв12585 0.0 1014286
12:00+25зсз43345 0.0 10131384
15:00+24зсз44385 0.0 1010859
18:00+17зсз226512 0.0 101111
21:00+15всв11691 0.0 101311
22 января, сб
сб2200:00+13всв22720 0.0 101218
03:00+12св22670 0.0 101123
06:00+12всв22690 0.0 101114
09:00+21всв22430 0.0 1013274
12:00+27сз24250 0.0 10122010
15:00+25зсз44292 0.0 10091403
18:00+18сз23567 0.0 101024
21:00+16св22593 0.0 101213
23 января, вс
вс2300:00+14всв22570 0.0 101217
03:00+13всв22580 0.0 101119
06:00+13всв22600 0.0 101122
09:00+21ссв23360 0.0 1013274
12:00+28ссз33240 0.0 10111786
15:00+27зсз54301 0.0 10091260
18:00+19сз33590 0.0 101041
21:00+17ссв11595 0.0 101211
24 января, пн
пн2400:00+16всв2259100 0.0 101226
03:00+16всв115661 0.0 101113
06:00+17в225542 0.0 101043
09:00+23всв114163 0.0 1013323
12:00+26зсз433476 0.0 10121105
15:00+25сз443986 0.0 1010782
18:00+21с364799 0.0 1010158
21:00+19ссв366167 0.0 1013164
25 января, вт
вт2500:00+19св2362100 0.0 101283
03:00+16всв22672 0.0 101012
06:00+15св22710 0.0 101115
09:00+23св114518 0.0 1013316
12:00+28зсз43375 0.0 10111341
15:00+26зсз44455 0.0 1008764
18:00+19зсз23740 0.0 100938
21:00+17вюв11830 0.0 101111